Location: D�rnast
(49.6426°N, 11.9755°E)
Time: 20:14:21
(UTC+00:00)

Cosmos 1833 Rocket - Pass Details

Date: 24 January 2021
Orbit: 833 x 839 km, 71.0° (Epoch: 02 March)

Event Time Altitude Azimuth Distance (km) Brightness Sun altitude
Rises 18:24:19 0° 330° (NNW) 3,392 6.2 -24.0°
Reaches altitude 10° 18:26:45 10° 329° (NNW) 2,455 5.5 -24.4°
Maximum altitude 18:32:22 76° 245° (WSW) 863 2.7 -25.3°
Enters shadow 18:34:57 33° 165° (SSE) 1,365 3.6 -25.7°
